Hurricane Symbol View the latest observations near Atlantic Potential Tropical Cyclone One.

Station ABYA2 - Auke Bay Lab Dock, AK Image indicating link to RSS feed of recent meteorological observations for station ABYA2


Conditions at ABYA2 as of
(6:52 pm AKDT on 06/18/2024)
0252 GMT on 06/19/2024:
     

Click on the graph icon in the table below to see a time series plot of the last five days of that observation.

5-day plot - Wind Direction Wind Direction (WDIR): S ( 180 deg true )
5-day plot - Wind Speed Wind Speed (WSPD): 4.1 kts
5-day plot - Wind Gust Wind Gust (GST): 5.1 kts
5-day plot - Atmospheric Pressure Atmospheric Pressure (PRES):30.00 in
5-day plot - Air Temperature Air Temperature (ATMP): 65.1 °F
5-day plot - Dew Point Dew Point (DEWP): 52.9 °F
5-day plot - Wind Speed at 10 Meters Wind Speed at 10 meters (WSPD10M): 5.8 kts
5-day plot - Wind Speed at 20 Meters Wind Speed at 20 meters (WSPD20M): 5.8 kts
5-day plot -  Wind Speed, Wind Gust and Atmospheric Pressure Combined plot of Wind Speed, Gust, and Air Pressure
Previous observations
TIME
(AKDT)
5-day plot - Wind Direction
WDIR
 
5-day plot - Wind Speed
WSPD
kts
5-day plot - Wind Gust
GST
kts
5-day plot - Wave Height
WVHT
ft
5-day plot - Dominant Wave Period
DPD
sec
5-day plot - Average Wave Period
APD
sec
5-day plot - Mean Wave Direction
MWD
 
5-day plot - Atmospheric Pressure
PRES
in
5-day plot - Pressure Tendency
PTDY
in
5-day plot - Air Temperature
ATMP
°F
5-day plot - Water Temperature
WTMP
°F
5-day plot - Dew Point
DEWP
°F
5-day plot - Salinity
SAL
psu
5-day plot - Visibility
VIS
nmi
5-day plot - Tide (above MLLW)
TIDE
ft
2024-06-18 05:52 pm S 5.1 6.0----30.01- 65.1- 53.8---
2024-06-18 04:52 pmSSW 5.1 7.0----30.02- 64.0- 50.4---
2024-06-18 03:52 pmSSW 5.1 7.0----30.02- 63.7- 51.3---
2024-06-18 02:52 pmSSW 6.0 8.0----30.03- 62.2- 50.9---
2024-06-18 01:52 pm S 4.1 6.0----30.04- 61.0- 49.3---
2024-06-18 12:52 pm S 6.0 7.0----30.05- 59.5- 50.9---
2024-06-18 11:52 am S 6.0 7.0----30.05- 57.2- 49.1---
2024-06-18 10:52 amSSW 5.1 7.0----30.05- 56.1- 48.6---
2024-06-18 09:52 am- 0.0 5.1----30.06- 55.6- 48.0---
2024-06-18 08:52 am S 1.9 2.9----30.05- 54.5- 48.2---
2024-06-18 07:52 am- 0.0 1.0----30.04- 52.3- 48.4---
2024-06-18 06:52 am- 0.0 1.9----30.04- 50.7- 47.7---
2024-06-18 05:52 am- 0.0 1.0----30.04- 49.8- 47.5---
2024-06-18 04:52 am- 0.0 2.9----30.03- 50.4- 47.7---
2024-06-18 03:52 am- 0.0 1.9----30.03- 50.5- 47.3---
2024-06-18 02:52 am N 1.9 2.9----30.03- 52.0- 47.8---
2024-06-18 01:52 am SW 4.1 4.1----30.02- 55.0- 48.0---
2024-06-18 12:52 am S 5.1 7.0----30.02- 55.8- 48.7---
2024-06-17 11:52 pm- 0.0 1.9----30.01- 55.4- 49.3---
2024-06-17 10:52 pm SW 1.9 5.1----30.00- 57.9- 49.6---
2024-06-17 09:52 pm W 1.9 5.1----29.98- 60.3- 49.3---
2024-06-17 08:52 pmSSW 2.9 6.0----29.98- 61.9- 49.8---
2024-06-17 07:52 pm S 8.9 12.0----29.97- 62.6- 49.3---
2024-06-17 06:52 pm S 9.9 11.1----29.97- 61.9- 49.8---